星链-2489 (STARLINK-2489 )

导读 | 星芒AI

STARLINK-2489 是 SpaceX Starlink 卫星互联网项目中的一颗低轨通信卫星。它属于 Starlink 任务的第 24 批部署,于 2023 年发射,旨在为全球用户提供高速、低延迟的宽带互联网服务。该卫星运行在约 550 公里的轨道高度,采用先进的推进系统和激光通信技术,以提升网络性能和卫星间通信效率。作为 Starlink 卫星群的一部分,STARLINK-2489 有助于扩大覆盖范围,特别是在偏远和网络基础设施薄弱的地区。

基本信息
目录编号:
48146
目录名称:
STARLINK-2489
国际标识:
2021-027BG
轨道中心:
EARTH
卫星名称:
星链-2489
卫星全名:
星链-2489 (STARLINK-2489 )
卫星状态:
已陨落 最后检测时间 2024-06-08
发射日期:
2021-04-07 UTC
国别 :
美国 (US)
星等 :
--
轨道信息
数据来源 国际轨道数据
星历时间: 2024-06-08T18:28:51+0800
轨道信息已过期511天
半长轴: 6559.135km
偏心率: 0.0004639
轨道倾角: 53.032°
近地点辐角 217.713°
升交点赤经 128.078°
平近点角 228.660°
近地点: 177.957km
远地点: 184.043km
周期: 88.111分钟
每日圈数: 16.343043
详细信息
固有亮度:
5
最大亮度:
2.5
卫星平台:
Starlink V1.0
覆盖范围:
全球
运营商:
太空探索技术公司
运营商所在国:
美国
制造商(研发单位):
太空探索技术公司
制造商所在国:
美国
使用方式:
暂无
卫星简介
星链(Starlink)计划是由太空探索技术公司(SpaceX)提出的一个巨型低轨卫星互联网星座项目,计划在2019年至2024年间在太空搭建由约1.2万颗卫星组成的“星链”网络,其中1584颗将部署在地球上空550千米处的近地轨道,并从2020年开始工作。该卫星已陨落。